Location: Maiden_LMO
(35.5760°N, 81.2120°W)
Time: 11:40:36
(UTC-04:00)

ADEOS II - Visible Passes

Search period start: 06 July 2015 00:00
Search period end: 16 July 2015 00:00
Orbit: 801 x 801 km, 98.3° (Epoch: 05 July)

Date Brightness Start Highest point End Pass type
(mag) Time Alt. Az. Time Alt. Az. Time Alt. Az.
07 Jul 4.7 05:40:09 10° NE 05:43:46 19° E 05:47:34 10° SE visible
11 Jul 4.7 05:35:15 10° NE 05:38:34 17° E 05:42:07 10° SE visible
15 Jul 4.8 05:30:25 10° NE 05:33:22 16° E 05:36:35 10° SE visible
